weather.gov     
National Weather Service

Regional Weather Roundup
NWS Homepage
This page is being discontinued on March 12, 2014.
The same data is available at this site. Please update your bookmarks.
Thank you, and we apologize for the inconvenience.
Please send an email to SR-SRH.Webmaster@noaa.gov with any concerns.


Current Version
Previous Version:    01  02  03  04  05  06  07  08  09  10  11  12  13  14  15  16  17  18  19  20  21  22  23  24  25  26  27  28  29  30  
   31  32  33  34  35  36  37  38  39  40  41  42  43  44  45  46  47  48  49  50  51  52  53  
[Printable]
173
ASUS42 KMHX 291622
RWRMHX
WEATHER ROUNDUP FOR EASTERN NORTH CAROLINA
NATIONAL WEATHER SERVICE NEWPORT/MOREHEAD CITY NC
1100 AM EST THU JAN 29 2015

NOTE: "FAIR" INDICATES FEW OR NO CLOUDS BELOW 12,000 FEET
WITH NO SIGNIFICANT WEATHER AND/OR OBSTRUCTIONS TO VISIBILITY

NCZ015>017-031-032-045>047-102-103-291700-
NORTH COAST

CITY           SKY/WX    TMP DP  RH WIND       PRES   REMARKS
EDENTON        CLOUDY    37  19  46 SE3       30.35F
ELIZABETH CITY PTSUNNY   36  15  42 CALM      30.36S
KITTY HAWK     MOSUNNY   38  22  52 CALM      30.34S
MANTEO         MOSUNNY   37  23  56 NW3       30.36S

$$

NCZ045>047-081-094-103-104-291700-
CENTRAL COAST

CITY           SKY/WX    TMP DP  RH WIND       PRES   REMARKS
FRISCO         MOSUNNY   40  23  50 VRB5      30.36S
SWANQUARTER    NOT AVBL

$$

NCZ095-097-098-100-101-291700-
SOUTHERN COAST

CITY           SKY/WX    TMP DP  RH WIND       PRES   REMARKS
BEAUFORT       SUNNY     41  20  43 CALM      30.37F
CEDAR ISLAND   NOT AVBL
JACKSONVILLE   MOSUNNY   38  11  32 VRB3      30.36F
PINEY ISLAND     N/A    N/A N/A N/A MISG      30.36F
WILMINGTON     MOSUNNY   44  15  31 CALM      30.36F


$$

NCZ011>013-027>030-043-044-078>080-089-090>093-098-291700-
COASTAL PLAIN

CITY           SKY/WX    TMP DP  RH WIND       PRES   REMARKS
AHOSKIE        CLOUDY    34  15  46 SE5       30.35F
CLINTON        PTSUNNY   40  17  39 CALM      30.36F
ELIZABETHTOWN  MOSUNNY   44  15  31 CALM      30.35F
GOLDSBORO      PTSUNNY   38  16  39 CALM      30.34F
GREENVILLE     CLOUDY    37  10  32 S5        30.36F
HAVELOCK       CLOUDY    41  13  31 CALM      30.38F
KENANSVILLE    PTSUNNY   38  13  35 E3        30.37F
KINSTON        PTSUNNY   37  16  41 CALM      30.36F
NEW BERN       PTSUNNY   41  12  30 CALM      30.38F
RICHLANDS      PTSUNNY   39  16  38 CALM      30.35F
ROCKY MOUNT    PTSUNNY   37  13  37 S6        30.36F
WASHINGTON     CLOUDY    37  13  38 S3        30.35F
WHITEVILLE     SUNNY     43  17  34 S5        30.35F

$$

AMZ130-135-150-152-154-156-158-170-250-252-270-ANZ085-086-088-633-658-670-291700-
MARINE OBSERVATIONS

STATION/POSITION TIME  TEMP    WIND        PRES    WAVE   SWELL
                       AIR SEA DIR/SP/G            HT/PER HT/PER
                 (UTC) (F)     (DEG/KT/KT) (MB)    (FT/S) (FT/S)
CHESAPEAKE LIGHT 1600   34      90/  2/  3 1027.9
64 E VA BEACH    1600   38 48   10/  8/ 10 1026.5    5/11   5/11
DUCK             1500   35 42  350/  5/  7 1027.2
2 E DUCK         1600      42                N/A     4/11   2/11
10 NE DUCK       1600      45                N/A     4/11   2/11
OREGON INLET     1500   37 41  340/  5/  9 1027.9
13E OREGON INLT  1600      44                N/A     5/13   3/13
HATTERAS CG      1500   36 44  360/  8/ 10 1028.5
DIAMOND BUOY     1600   40 71  340/ 10/ 14 1027.6    6/10   7/10
17 S OCRACOKE    NOT AVBL
CAPE LOOKOUT     1600   38      40/  5/  7 1028.1
BEAUFORT LAB     1500   36 45  360/  4/  6 1027.7
27 SE WRIGHTSVLE NOT AVBL
5 SE WRIGHTSVLE  1600   43 52   80/  6/  6 1028.2
225 S CAPE HAT   1452   56 72  340/ 12/ 17 1027.1    8/11   7/11
41 SE CHARLESTON 1600   54 67   80/  4/  8 1028.2    4/11   3/11

$$




U.S. Dept. of Commerce
NOAA National Weather Service
1325 East West Highway
Silver Spring, MD 20910
E-mail: w-nws.webmaster@noaa.gov
Page last modified: May 16, 2007
NATIONAL WEATHER SERVICE: for Safety, for Work, for Fun - FOR LIFE